Weather History for KJAX - May, 2013

Change the Weather History Date:

Wednesday, May 22, 2013

  Actual Average Record
Temperature  
Mean Temperature 73 °F 76 °F  
Max Temperature 81 °F 87 °F 99 °F (1938)
Min Temperature 64 °F 65 °F 47 °F (1981)
Degree Days  
Heating Degree Days 0 0  
Month to date heating degree days 5 3  
Since 1 July heating degree days 1243 1347  
Cooling Degree Days 8 11  
Month to date cooling degree days 135 182  
Year to date cooling degree days 354 378  
Growing Degree Days 22 (Base 50)    
Moisture  
Dew Point 68 °F    
Average Humidity 81    
Maximum Humidity 100    
Minimum Humidity 62    
Precipitation  
Precipitation 0.24 in 0.09 in 7.59 in (1906)
Month to date precipitation 5.39 1.52  
Year to date precipitation 17.24 14.60  
Snow  
Snow 0.00 in 0.00 in 0.00 in (2002)
Month to date snowfall 0.0 0.0  
Since 1 July snowfall 0.0 T  
Snow Depth 0.00 in    
Sea Level Pressure  
Sea Level Pressure 29.98 in    
Wind  
Wind Speed 3 mph (ESE)    
Max Wind Speed 15 mph    
Max Gust Speed 18 mph    
Visibility 8 miles    
Events Rain , Thunderstorm    
T = Trace of Precipitation, MM = Missing Value Source: NWS Daily Summary

Daily Weather History Graph

Daily Weather History Graph

Search for Another Location

Airport or City:

Trip Planner

Search our weather history database for the weather conditions in past years. The results will help you decide how hot, cold, wet, or windy it might be!

Date:

Astronomy

May. 22, 2013 Rise Set
Actual Time 6:28 AM EDT 8:18 PM EDT
Civil Twilight 6:01 AM EDT 8:45 PM EDT
Nautical Twilight 5:29 AM EDT 9:17 PM EDT
Astronomical Twilight 4:55 AM EDT 9:52 PM EDT
Moon 5:48 PM EDT (5/22) 4:20 AM EDT (5/22)
Length of Visible Light 14h 43m
Length of Day
13h 50m
Waxing Gibbous, 91% of the Moon is Illuminated
May 22
Waxing Gibbous
May 25
Full
May 31
Last Quarter
Jun 8
New
Jun 16
First Quarter

Hourly Weather History & Observations

Time (EDT) Temp. Heat Index Dew Point Humidity Pressure Visibility Wind Dir Wind Speed Gust Speed Precip Events Conditions
12:56 AM 69.1 °F - 68.0 °F 96% 29.99 in 10.0 mi South 3.5 mph - N/A   Partly Cloudy
1:56 AM 70.0 °F - 68.0 °F 93% 29.98 in 10.0 mi Calm Calm - N/A   Clear
2:56 AM 66.9 °F - 66.0 °F 97% 29.97 in 10.0 mi Calm Calm - N/A   Clear
3:56 AM 66.0 °F - 64.9 °F 96% 29.97 in 7.0 mi Calm Calm - N/A   Partly Cloudy
4:53 AM 64.4 °F - 64.4 °F 100% 29.97 in 6.0 mi Calm Calm - N/A   Scattered Clouds
4:56 AM 64.9 °F - 64.0 °F 97% 29.97 in 6.0 mi Calm Calm - N/A   Scattered Clouds
5:23 AM 64.4 °F - 64.4 °F 100% 29.96 in 4.0 mi Calm Calm - N/A   Mostly Cloudy
5:36 AM 64.4 °F - 64.4 °F 100% 29.96 in 8.0 mi Calm Calm - N/A   Scattered Clouds
5:56 AM 64.9 °F - 64.0 °F 97% 29.97 in 6.0 mi Calm Calm - N/A   Scattered Clouds
6:56 AM 64.9 °F - 64.9 °F 100% 29.99 in 6.0 mi Calm Calm - N/A   Scattered Clouds
7:56 AM 71.1 °F - 69.1 °F 93% 29.99 in 8.0 mi Calm Calm - N/A   Scattered Clouds
8:56 AM 77.0 °F - 71.1 °F 82% 30.00 in 10.0 mi Calm Calm - N/A   Scattered Clouds
9:56 AM 79.0 °F - 69.1 °F 72% 30.00 in 10.0 mi SE 4.6 mph - N/A   Mostly Cloudy
10:56 AM 78.1 °F - 68.0 °F 71% 30.01 in 10.0 mi Calm Calm - N/A   Mostly Cloudy
11:56 AM 80.1 °F 82.1 °F 66.0 °F 62% 30.01 in 10.0 mi East 3.5 mph - N/A   Mostly Cloudy
12:56 PM 75.0 °F - 70.0 °F 84% 30.01 in 10.0 mi NNE 3.5 mph - 0.00 in Rain Light Rain
1:56 PM 73.9 °F - 69.1 °F 85% 30.00 in 10.0 mi NW 6.9 mph - 0.00 in   Overcast
2:26 PM 71.6 °F - 69.8 °F 94% 30.00 in 8.0 mi ESE 9.2 mph - 0.00 in Rain Light Rain
2:35 PM 71.6 °F - 68.0 °F 88% 30.00 in 2.5 mi ESE 12.7 mph - 0.02 in Rain Heavy Rain
2:39 PM 71.6 °F - 68.0 °F 88% 30.00 in 2.5 mi ESE 12.7 mph - 0.13 in Rain , Thunderstorm Heavy Thunderstorms and Rain
2:56 PM 72.0 °F - 68.0 °F 87% 29.99 in 4.0 mi East 9.2 mph - 0.24 in Rain , Thunderstorm Thunderstorms and Rain
3:15 PM 75.2 °F - 69.8 °F 83% 29.98 in 10.0 mi East 5.8 mph - 0.00 in   Mostly Cloudy
3:56 PM 78.1 °F - 72.0 °F 81% 29.96 in 10.0 mi East 8.1 mph - 0.00 in   Mostly Cloudy
4:56 PM 80.1 °F 83.6 °F 71.1 °F 74% 29.94 in 10.0 mi ESE 9.2 mph - N/A   Mostly Cloudy
5:56 PM 80.1 °F 82.9 °F 69.1 °F 69% 29.94 in 10.0 mi East 9.2 mph - N/A   Mostly Cloudy
6:56 PM 79.0 °F - 66.9 °F 66% 29.94 in 10.0 mi SE 9.2 mph - N/A   Mostly Cloudy
7:56 PM 77.0 °F - 68.0 °F 74% 29.94 in 10.0 mi ESE 8.1 mph - N/A   Scattered Clouds
8:56 PM 73.0 °F - 68.0 °F 84% 29.95 in 10.0 mi SSE 3.5 mph - N/A   Scattered Clouds
9:56 PM 71.1 °F - 68.0 °F 90% 29.96 in 10.0 mi Calm Calm - N/A   Partly Cloudy
10:56 PM 71.1 °F - 69.1 °F 93% 29.96 in 10.0 mi SSE 3.5 mph - N/A   Clear
11:56 PM 70.0 °F - 66.9 °F 90% 29.97 in 10.0 mi Calm Calm - N/A   Clear